Time,TemperatureF,DewpointF,PressureIn,WindDirection,WindDirectionDegrees,WindSpeedMPH,WindSpeedGustMPH,Humidity,HourlyPrecipIn,Conditions,Clouds,dailyrainin,SolarRadiationWatts/m^2,SoftwareType,DateUTC
2013-10-11 00:50:00,42.0,40.0,-100.00,SSE,159,3.0,3.0,95,0.01,,,-99.99,0.000000,,2013-10-11 06:50:00,
2013-10-11 01:21:00,42.0,40.0,-100.00,SSE,159,3.0,3.0,95,0.01,,,-99.99,0.000000,,2013-10-11 07:21:00,
2013-10-11 01:32:00,42.0,40.0,-100.00,SSE,159,3.0,3.0,95,0.01,,,-99.99,0.000000,,2013-10-11 07:32:00,
2013-10-11 01:42:00,42.0,40.0,-100.00,SSE,159,3.0,3.0,95,0.01,,,-99.99,0.000000,,2013-10-11 07:42:00,
2013-10-11 02:22:00,39.0,38.0,-100.00,South,184,3.0,4.0,96,0.01,,,-99.99,0.000000,,2013-10-11 08:22:00,
2013-10-11 03:22:00,38.0,37.0,-100.00,SSE,164,4.0,6.0,97,0.00,,,-99.99,0.000000,,2013-10-11 09:22:00,
2013-10-11 05:50:00,40.0,39.0,-100.00,SSE,164,4.0,5.0,97,0.00,,,-99.99,0.000000,,2013-10-11 11:50:00,
2013-10-11 06:22:00,40.0,39.0,-100.00,SSE,164,4.0,5.0,97,0.00,,,-99.99,0.000000,,2013-10-11 12:22:00,
2013-10-11 06:33:00,40.0,39.0,-100.00,SSE,164,4.0,5.0,97,0.00,,,-99.99,0.000000,,2013-10-11 12:33:00,
2013-10-11 06:42:00,40.0,39.0,-100.00,SSE,164,4.0,5.0,97,0.00,,,-99.99,0.000000,,2013-10-11 12:42:00,
2013-10-11 07:53:00,38.0,37.0,-100.00,SSE,162,4.0,6.0,97,0.00,,,-99.99,2.000000,,2013-10-11 13:53:00,
2013-10-11 10:50:00,52.0,37.0,-100.00,WNW,294,5.0,9.0,58,0.00,,,-99.99,540.000000,,2013-10-11 16:50:00,
2013-10-11 10:53:00,50.0,43.0,-100.00,SSW,193,4.0,6.0,76,0.00,,,-99.99,490.000000,,2013-10-11 16:53:00,
2013-10-11 11:21:00,52.0,37.0,-100.00,WNW,294,5.0,9.0,58,0.00,,,-99.99,540.000000,,2013-10-11 17:21:00,
2013-10-11 11:33:00,52.0,37.0,-100.00,WNW,294,5.0,9.0,58,0.00,,,-99.99,540.000000,,2013-10-11 17:33:00,
2013-10-11 11:43:00,52.0,37.0,-100.00,WNW,294,5.0,9.0,58,0.00,,,-99.99,540.000000,,2013-10-11 17:43:00,
2013-10-11 13:21:00,53.0,41.0,-100.00,SE,143,5.0,7.0,63,0.00,,,-99.99,209.000000,,2013-10-11 19:21:00,
2013-10-11 14:53:00,54.0,40.0,-100.00,ENE,75,5.0,8.0,59,0.00,,,-99.99,157.000000,,2013-10-11 20:53:00,
2013-10-11 15:50:00,58.0,33.0,-100.00,SSW,208,1.0,5.0,39,0.00,,,-99.99,556.000000,,2013-10-11 21:50:00,
2013-10-11 16:23:00,58.0,33.0,-100.00,SSW,208,1.0,5.0,39,0.00,,,-99.99,556.000000,,2013-10-11 22:23:00,
2013-10-11 16:33:00,58.0,33.0,-100.00,SSW,208,1.0,5.0,39,0.00,,,-99.99,556.000000,,2013-10-11 22:33:00,
2013-10-11 16:43:00,58.0,33.0,-100.00,SSW,208,1.0,5.0,39,0.00,,,-99.99,556.000000,,2013-10-11 22:43:00,
2013-10-11 18:22:00,56.0,42.0,-100.00,South,184,1.0,3.0,59,0.00,,,-99.99,120.000000,,2013-10-12 00:22:00,
2013-10-11 20:50:00,44.0,33.0,-100.00,SE,138,7.0,11.0,64,0.00,,,-99.99,0.000000,,2013-10-12 02:50:00,
2013-10-11 21:23:00,44.0,33.0,-100.00,SE,138,7.0,11.0,64,0.00,,,-99.99,0.000000,,2013-10-12 03:23:00,
2013-10-11 21:34:00,44.0,33.0,-100.00,SE,138,7.0,11.0,64,0.00,,,-99.99,0.000000,,2013-10-12 03:34:00,
2013-10-11 21:44:00,44.0,33.0,-100.00,SE,138,7.0,11.0,64,0.00,,,-99.99,0.000000,,2013-10-12 03:44:00,
2013-10-11 23:52:00,41.0,31.0,-100.00,SE,146,4.0,6.0,66,0.00,,,-99.99,0.000000,,2013-10-12 05:52:00,